Regional Weather Roundup
Issued by NWS

Home | Current Version | Previous Version | Text Only | Print | Product List | Glossary Off
Versions: 1 2 3 4 5 6 7 8 9 10 11 12 13 14 15 16 17 18 19 20 21 22 23 24 25 26 27 28 29 30 31 32 33 34 35 36 37 38 39 40 41 42 43 44 45 46 47 48 49 50

000
ASUS45 KBOI 270510
RWRID
WEATHER ROUNDUP FOR IDAHO
NATIONAL WEATHER SERVICE BOISE ID
1100 PM MDT THU MAR 26 2015

NOTE: "FAIR" INDICATES FEW OR NO CLOUDS BELOW 12000 FEET
WITH NO SIGNIFICANT WEATHER AND/OR OBSTRUCTIONS TO VISIBILITY

IDZ012-014-270600-
SOUTHWEST IDAHO


CITY           SKY/WX    TMP DP  RH WIND       PRES   REMARKS
BOISE          CLEAR     50  39  66 E3        30.26S
CALDWELL       CLEAR     52  36  54 CALM      30.27S
MOUNTAIN HOME  CLEAR     49  38  68 N3        30.25F
$$

IDZ016-017-270600-
SOUTHCENTRAL IDAHO


CITY           SKY/WX    TMP DP  RH WIND       PRES   REMARKS
BURLEY         CLEAR     41  34  76 SE3       30.30R
JEROME         CLEAR     47  35  63 E7        30.31R
TWIN FALLS     CLEAR     46  34  62 S12       30.30S
$$

IDZ019>023-270600-
SOUTHEAST IDAHO


CITY           SKY/WX    TMP DP  RH WIND       PRES   REMARKS
IDAHO FALLS    CLEAR     45  33  63 S7        30.32F
POCATELLO      CLEAR     45  33  63 SW6       30.33R
REXBURG        PTCLDY    48  32  53 S7        30.32S
$$

IDZ006-010-011-018-031-032-270600-
CENTRAL IDAHO MOUNTAINS


CITY           SKY/WX    TMP DP  RH WIND       PRES   REMARKS
MCCALL         CLEAR     40  35  83 CALM      30.30S
HAILEY         CLEAR     45  37  76 W3        30.34R
STANLEY          N/A     37  30  75 S3        30.38R
SALMON         PTCLDY   N/A N/A N/A CALM      30.29S
CHALLIS        CLEAR     46  33  60 E3        30.31R
$$

IDZ002-004-006-007-026-270600-
NORTHERN IDAHO


CITY           SKY/WX    TMP DP  RH WIND       PRES   REMARKS
LEWISTON       CLEAR     55  48  77 SE7       30.18F
LOWELL           N/A     47  45  93 N7        30.28R
COEUR D`ALENE  CLEAR     48  45  87 NE5       30.22S
MULLAN PASS    PTCLDY    41  37  86 SW7       30.28F
$$



USA.gov is the U.S. government's official web portal to all federal, state and local government web resources and services.